星链-33803 (STARLINK-33803)

导读

STARLINK-33803是美国SpaceX公司星链(Starlink)项目旗下的卫星,该项目旨在构建全球卫星互联网星座。这颗卫星于2025年4月7日由美国发射,升空后将加入近地轨道的星链组网,为全球多地提供高速低延迟的宽带互联网服务,进一步扩充星链星座的规模与服务覆盖能力。

基本信息
目录编号:
63517
目录名称:
STARLINK-33803
国际标识:
2025-071AA
轨道中心:
EARTH
卫星名称:
星链-33803
卫星全名:
星链-33803 (STARLINK-33803)
卫星状态:
在轨 (已飞行433 天)
发射日期:
2025-04-07 UTC
国别 :
美国 (US)
星等 :
--
轨道信息
数据来源 国际轨道数据
星历时间: 2026-06-14T04:21:47+0800
9小时前
查看轨道信息
半长轴: 6853.38km
偏心率: 0.0001792
轨道倾角: 53.160°
近地点辐角 126.249°
升交点赤经 53.138°
平近点角 233.868°
近地点: 474.014km
远地点: 476.472km
周期: 94.106分钟
每日圈数: 15.301908
详细信息
固有亮度:
5
最大亮度:
2.5
卫星平台:
Starlink V1.0
覆盖范围:
全球
运营商:
太空探索技术公司
运营商所在国:
美国
制造商(研发单位):
太空探索技术公司
制造商所在国:
美国
使用方式:
暂无
卫星简介
Starlink 计划是 SpaceX 推出的全球卫星互联网项目,通过发射低轨道卫星,为全球尤其是偏远地区提供高速、低延迟的互联网服务。自 2019 年起,Starlink 已部署数千颗卫星,旨在缩小全球数字鸿沟,推动互联网普及。该项目还为军事、航空等行业提供通信支持,带来广泛经济效益。
2D轨道图
3D轨道图
轨道高度分析图
轨道倾角分析图
轨道综合分析图
查看轨道综合分析图